User: anonymous
Location: Valdosta
(30.8330°N, 83.2790°W)
Time: 19:44:58
(UTC-04:00)
Language:

Oscar 19 - Orbit

View from above orbital plane
View from above orbital plane
View from above satellite
View from above satellite

Ground track
Ground track

The orbit data is extracted from the following two-line orbital elements,

1 20442U 90005G   14244.41542705  .00000051  00000-0  34613-4 0   391
2 20442 098.4810 180.7540 0010560 283.4544 076.5463 14.32581268285591
Epoch (UTC): 01 September 2014 09:58:12
Eccentricity: 0.0010560
inclination: 98.4810°
perigee height: 775 km
apogee height: 790 km
right ascension of ascending node: 180.7540°
argument of perigee: 283.4544°
revolutions per day: 14.32581268
mean anomaly at epoch: 76.5463°
orbit number at epoch: 28559

The dashed part of the orbit path shows where the satellite is in the earth's shadow,  

DLR